TimeCDT,TemperatureF,Dew PointF,Humidity,Sea Level PressureIn,VisibilityMPH,Wind Direction,Wind SpeedMPH,Gust SpeedMPH,PrecipitationIn,Events,Conditions,WindDirDegrees,DateUTC
12:52 AM,77.0,61.0,58,30.08,10.0,SSE,4.6,-,N/A,,Clear,150,2013-08-26 05:52:00
1:52 AM,77.0,61.0,58,30.08,10.0,ESE,5.8,-,N/A,,Clear,120,2013-08-26 06:52:00
2:52 AM,73.0,61.0,66,30.07,10.0,SSE,3.5,-,N/A,,Clear,150,2013-08-26 07:52:00
3:52 AM,75.0,61.0,62,30.07,10.0,ESE,6.9,-,N/A,,Clear,110,2013-08-26 08:52:00
4:52 AM,73.0,61.0,66,30.07,10.0,SSE,5.8,-,N/A,,Clear,150,2013-08-26 09:52:00
5:52 AM,73.9,63.0,68,30.08,10.0,SE,8.1,-,N/A,,Clear,140,2013-08-26 10:52:00
6:52 AM,72.0,63.0,73,30.10,10.0,South,3.5,-,N/A,,Clear,170,2013-08-26 11:52:00
7:52 AM,73.0,63.0,71,30.11,10.0,Calm,Calm,-,N/A,,Clear,0,2013-08-26 12:52:00
8:52 AM,78.1,64.9,64,30.12,10.0,SSE,9.2,-,N/A,,Clear,150,2013-08-26 13:52:00
9:52 AM,81.0,66.0,60,30.12,10.0,SE,9.2,-,N/A,,Clear,130,2013-08-26 14:52:00
10:52 AM,84.9,64.0,49,30.13,10.0,East,10.4,-,N/A,,Clear,100,2013-08-26 15:52:00
11:52 AM,88.0,63.0,43,30.12,10.0,East,12.7,19.6,N/A,,Partly Cloudy,90,2013-08-26 16:52:00
12:52 PM,89.1,62.1,40,30.10,10.0,East,16.1,20.7,N/A,,Partly Cloudy,90,2013-08-26 17:52:00
1:52 PM,90.0,62.1,39,30.07,10.0,East,11.5,-,N/A,,Scattered Clouds,100,2013-08-26 18:52:00
2:52 PM,93.0,61.0,34,30.05,10.0,ESE,18.4,23.0,N/A,,Partly Cloudy,120,2013-08-26 19:52:00
3:52 PM,93.0,59.0,32,30.03,10.0,ESE,18.4,24.2,N/A,,Partly Cloudy,110,2013-08-26 20:52:00
4:52 PM,91.9,61.0,35,30.01,10.0,SE,18.4,24.2,N/A,,Scattered Clouds,140,2013-08-26 21:52:00
5:52 PM,90.0,60.1,37,30.01,10.0,SE,13.8,-,N/A,,Scattered Clouds,130,2013-08-26 22:52:00
6:52 PM,90.0,60.1,37,30.01,10.0,SE,13.8,-,N/A,,Clear,130,2013-08-26 23:52:00
7:52 PM,88.0,60.1,39,30.01,10.0,ESE,10.4,-,N/A,,Clear,120,2013-08-27 00:52:00
8:52 PM,84.9,61.0,44,30.02,10.0,ESE,9.2,-,N/A,,Clear,120,2013-08-27 01:52:00
9:52 PM,82.9,61.0,47,30.02,10.0,ESE,6.9,-,N/A,,Clear,110,2013-08-27 02:52:00
10:52 PM,81.0,60.1,49,30.03,10.0,ESE,8.1,-,N/A,,Clear,110,2013-08-27 03:52:00
11:52 PM,80.1,61.0,52,30.02,10.0,ESE,9.2,-,N/A,,Clear,120,2013-08-27 04:52:00